DELTA 1 DEB (YO), 228

Orbit data source: Space-Track

DELTA 1 DEB (YO), 228 is space debris in LEO originally from a launch on Thu, 08 Feb 1962 UTC launched from the Air Force Eastern Test Range (AFETR). Debris objects in space refer to the collection of defunct objects orbiting the Earth. Examples of debris include non-operational satellites, rocket bodies, and fragments generated from explosions, collisions, or faulty payload assembly.

Loading next visibility...
Identifier
228, 1962-002C
Orbit
LEO
Country
Flag of USUS
Related business
Manufacturer
RCA/East Windsor
Mission
Spacecraft
Bus & Motor
Unknown
Mass
~1 kg wet, ~1 kg dry
Launch date (UTC)
1962-02-08 (64 years ago)
Launch vehicle
Unknown
Launch site
Air Force Eastern Test Range (AFETR)
Object type
Payload
Rocket body
Debris
Shape & HBR
Unknown shape, 0.1 m
Radar Cross Section
Small (<0.1 m²)

Expand to show TLE details & history
Last TLE update: 9 hours ago

TLE from 9 hours ago
0 DELTA 1 DEB (YO)
1 00228U 62002C   26126.43914713  .00029017  00000-0  51461-3 0  9990
2 00228  48.4289 179.0694 0008056 315.6480  44.3817 15.49873401436621
Epoch: 2026-05-06T10:32Z
TLE epoch observation values (Epoch: 2026-05-06T10:32:22.312Z)
Latitude
-0.00003°
Longitude
156.67678°
Altitude
413.571 km
Speed
7.667 km/s
True Right ascension
11h 56m 16s
True Declination
0° 00' 00"
Sunlit
Object was in full shadow at epoch
Visualization orbit readout
Latitude
Unknown
Longitude
Unknown
Altitude
Unknown
Speed
Unknown
Apparent Right ascension
Unknown
Apparent Declination
Unknown
Sunlit
N/A
Visualization observer readout
Local Sidereal Time
03:54:21
Azimuth
Unknown
Elevation
Unknown
Doppler factor
Unknown
Orbital elements
Apogee altitude
423.615 km
Perigee altitude
412.665 km
Semi-major axis
6,796.277 km
Eccentricity
0.00081
Inclination
48.4289°
RAAN
179.0694°
Arg. of periapsis
315.648°
True anomaly
44.44631°
Mean anomaly
44.3817°
Eccentric anomaly
44.414°
Mean motion
3.87379 °/min
Orbital period
92.93 mins
BSTAR
0.00051461
Loading maneuver chart data...
Computing Atmospheric mass density...
Loading historical data...
Loading historical data...
Loading historical data...
Loading historical data...
Loading historical data...
Loading historical data...
Loading historical data...
Other satellites on launch #2 in the year 1962 (1962-02-08 UTC)

Documentation

Showing up to 5 results
|